DW4669 Weather Reports


Display with metric or nautical units.
time (UTC)temp
F
wind
direction
speed
MPH
gust
MPH
rain 1hr
in
rain 24hr
in
rain mn
in
humidity
%
barometer
mb
20260902042018 65 0 0.0 0.0 0.00 0.48 0.00 95 1018.6
20260902041534 65 0 0.0 0.0 0.00 0.48 0.00 95 1018.6
20260902041022 65 0 0.0 0.0 0.00 0.48 0.00 95 1018.5
20260902040518 65 0 0.0 0.0 0.00 0.48 0.00 94 1018.4
20260902040035 65 0 0.0 2.0 0.00 0.48 0.00 94 1018.4
20260902035516 65 0 0.0 2.0 0.00 0.65 0.48 94 1018.3
20260902035015 66 0 0.0 1.0 0.00 0.65 0.48 94 1018.2
20260902034538 66 0 0.0 0.0 0.00 0.65 0.48 94 1018.2
20260902034017 66 0 0.0 2.0 0.00 0.65 0.48 93 1018.0
20260902033518 66 0 0.0 2.0 0.00 0.65 0.48 93 1017.9
20260902033035 67 223 0.0 1.0 0.00 0.65 0.48 93 1017.9
20260902032518 67 0 0.0 1.0 0.00 0.65 0.48 93 1017.7
20260902032018 67 0 0.0 5.0 0.00 0.65 0.48 93 1017.7
20260902031539 67 0 0.0 5.0 0.00 0.65 0.48 93 1017.6
20260902031016 67 0 0.0 0.0 0.00 0.65 0.48 93 1017.6
20260902030517 68 0 0.0 2.0 0.00 0.65 0.48 93 1017.5
20260902030035 68 0 0.0 3.0 0.00 0.65 0.48 93 1017.3
20260902025518 68 0 0.0 3.0 0.00 0.65 0.48 93 1017.2
20260902025018 68 0 0.0 3.0 0.00 0.65 0.48 93 1017.0
20260902024537 68 0 0.0 0.0 0.00 0.65 0.48 93 1016.8
20260902024017 69 0 0.0 0.0 0.00 0.65 0.48 93 1016.6
20260902023518 69 0 0.0 1.0 0.00 0.65 0.48 93 1016.7
20260902023038 69 0 0.0 1.0 0.00 0.65 0.48 93 1016.6
20260902022517 69 0 0.0 0.0 0.00 0.65 0.48 93 1016.6
20260902022017 69 0 0.0 0.0 0.00 0.65 0.48 93 1016.5
20260902021546 69 0 0.0 0.0 0.00 0.65 0.48 93 1016.6
20260902021019 69 0 0.0 0.0 0.00 0.65 0.48 93 1016.6
20260902020518 70 0 0.0 0.0 0.00 0.65 0.48 93 1016.7
20260902020036 70 0 0.0 1.0 0.00 0.65 0.48 93 1016.8
20260902015516 70 0 0.0 2.0 0.00 0.66 0.48 93 1016.7
20260902015018 70 0 0.0 2.0 0.00 0.66 0.48 93 1016.7
20260902014541 70 0 0.0 2.0 0.00 0.66 0.48 93 1016.6
20260902014023 70 0 0.0 2.0 0.00 0.66 0.48 92 1016.6
20260902013517 71 0 0.0 0.0 0.00 0.66 0.48 93 1016.6
20260902013035 71 0 0.0 0.0 0.00 0.66 0.48 93 1016.6
20260902012520 71 0 0.0 2.0 0.00 0.66 0.48 94 1016.3
20260902012019 72 0 0.0 2.0 0.00 0.66 0.48 93 1016.1
20260902011534 72 0 0.0 3.0 0.00 0.66 0.48 94 1016.1
20260902011016 72 0 0.0 3.0 0.00 0.66 0.48 94 1015.9
20260902010517 72 0 0.0 3.0 0.00 0.66 0.48 94 1015.8
20260902010037 72 0 0.0 3.0 0.00 0.66 0.48 94 1016.0
20260902005519 73 0 0.0 0.0 0.00 0.66 0.48 94 1015.9
20260902005017 73 0 0.0 1.0 0.00 0.66 0.48 95 1015.7
20260902004534 73 0 0.0 1.0 0.00 0.66 0.48 95 1015.6
20260902004018 73 0 0.0 1.0 0.00 0.66 0.48 95 1015.5
20260902003518 73 0 0.0 1.0 0.00 0.66 0.48 95 1015.5
20260902003039 73 0 0.0 1.0 0.00 0.66 0.48 95 1015.3
20260902002519 73 227 0.0 1.0 0.00 0.66 0.48 95 1015.3
20260902002018 73 0 0.0 1.0 0.00 0.66 0.48 95 1015.1
20260902001537 73 0 0.0 2.0 0.00 0.66 0.48 95 1015.0
20260902001018 73 0 0.0 2.0 0.00 0.66 0.48 94 1015.1
20260902000519 73 0 0.0 4.0 0.00 0.66 0.48 94 1015.1
20260902000037 73 0 0.0 4.0 0.00 0.66 0.48 94 1014.9
20260901235516 73 0 0.0 3.0 0.00 0.66 0.48 94 1014.8
20260901235019 73 0 0.0 3.0 0.00 0.66 0.48 94 1014.7
20260901234533 73 0 0.0 1.0 0.00 0.66 0.48 94 1014.6
20260901234017 73 0 0.0 4.0 0.00 0.66 0.48 93 1014.7
20260901233518 74 0 0.0 8.0 0.00 0.66 0.48 93 1014.9
20260901233035 74 339 1.0 8.0 0.00 0.66 0.48 93 1014.9
20260901232518 74 0 1.0 3.0 0.00 0.66 0.48 92 1015.0
20260901232018 75 300 0.0 3.0 0.00 0.66 0.48 92 1014.9
20260901231537 75 261 0.0 7.0 0.00 0.66 0.48 92 1015.0
20260901231022 75 0 1.0 7.0 0.00 0.66 0.48 92 1015.0
20260901230517 76 0 0.0 6.0 0.00 0.66 0.48 91 1014.9
20260901230034 76 0 0.0 6.0 0.00 0.66 0.48 91 1014.7
20260901225518 77 348 0.0 10.0 0.00 0.66 0.48 90 1014.9
20260901225015 77 315 1.0 10.0 0.00 0.66 0.48 89 1014.7
20260901224535 78 314 0.0 6.0 0.00 0.66 0.48 90 1014.5
20260901224017 78 0 1.0 4.0 0.00 0.66 0.48 90 1014.3
20260901223517 78 0 0.0 1.0 0.00 0.66 0.48 91 1014.1
20260901223042 79 0 0.0 1.0 0.00 0.66 0.48 90 1013.8
20260901222517 79 261 0.0 1.0 0.00 0.66 0.48 89 1013.8
20260901222021 80 0 0.0 0.0 0.00 0.66 0.48 88 1013.8
20260901221536 80 0 0.0 1.0 0.00 0.66 0.48 88 1013.8
20260901221018 80 0 0.0 1.0 0.00 0.66 0.48 86 1013.8
20260901220517 80 0 0.0 0.0 0.00 0.66 0.48 87 1013.9
20260901220039 80 0 0.0 0.0 0.00 0.66 0.48 87 1013.9
20260901215517 80 0 0.0 0.0 0.00 0.66 0.48 85 1014.0
20260901215016 81 0 0.0 0.0 0.00 0.66 0.48 85 1014.0
20260901214535 81 0 0.0 0.0 0.00 0.66 0.48 84 1014.0
20260901214019 82 0 0.0 0.0 0.00 0.66 0.48 83 1014.1
20260901213518 82 0 0.0 0.0 0.00 0.66 0.48 82 1014.0
20260901213100 82 0 0.0 0.0 0.00 0.66 0.48 84 1014.0
20260901212518 82 0 0.0 0.0 0.00 0.66 0.48 83 1013.8
20260901212018 82 0 0.0 0.0 0.00 0.66 0.48 82 1013.7
20260901211536 82 0 0.0 0.0 0.00 0.66 0.48 81 1014.0
20260901211016 82 0 0.0 0.0 0.00 0.66 0.48 82 1013.9
20260901210515 81 0 0.0 0.0 0.00 0.66 0.48 83 1014.0
20260901210034 82 0 0.0 0.0 0.00 0.66 0.48 86 1013.9
20260901205516 81 0 0.0 1.0 0.00 0.66 0.48 82 1014.0
20260901205017 82 0 0.0 1.0 0.00 0.66 0.48 82 1013.9
20260901204545 82 0 0.0 2.0 0.00 0.66 0.48 85 1013.9
20260901204019 82 261 0.0 2.0 0.00 0.66 0.48 82 1013.9
20260901203517 82 0 0.0 2.0 0.00 0.66 0.48 82 1013.9
20260901203034 81 0 0.0 0.0 0.00 0.66 0.48 81 1013.9
20260901202518 81 0 0.0 0.0 0.00 0.66 0.48 82 1013.9
20260901202019 80 0 0.0 0.0 0.00 0.66 0.48 84 1013.9
20260901201537 80 0 0.0 1.0 0.00 0.66 0.48 85 1013.9
20260901201016 80 0 0.0 1.0 0.00 0.66 0.48 83 1014.0
20260901200517 80 0 0.0 1.0 0.00 0.66 0.48 83 1014.1
20260901200036 80 0 0.0 1.0 0.00 0.66 0.48 83 1014.0
20260901195518 81 0 0.0 1.0 0.00 0.66 0.48 82 1014.0
20260901195018 81 0 0.0 2.0 0.00 0.66 0.48 81 1014.1
20260901194538 81 0 0.0 2.0 0.00 0.66 0.48 81 1014.0
20260901194019 81 0 0.0 2.0 0.00 0.66 0.48 81 1014.0
20260901193518 81 0 0.0 1.0 0.00 0.66 0.48 83 1014.0
20260901193036 80 0 0.0 8.0 0.00 0.66 0.48 83 1014.1
20260901192515 80 0 0.0 8.0 0.00 0.66 0.48 84 1014.0
20260901192016 80 0 0.0 5.0 0.00 0.66 0.48 84 1013.9
20260901191540 80 0 0.0 4.0 0.00 0.66 0.48 84 1014.0
20260901191018 79 0 0.0 3.0 0.00 0.66 0.48 86 1014.1
20260901190517 79 0 0.0 3.0 0.00 0.66 0.48 84 1014.1
20260901190035 79 0 0.0 4.0 0.00 0.66 0.48 85 1014.1
20260901185519 79 0 0.0 4.0 0.00 0.66 0.48 84 1014.2
20260901185021 79 0 0.0 2.0 0.00 0.66 0.48 86 1014.3
20260901184544 79 0 0.0 2.0 0.00 0.66 0.48 85 1014.2
20260901184020 78 0 0.0 2.0 0.00 0.66 0.48 86 1014.3
20260901183518 78 0 0.0 1.0 0.00 0.66 0.48 87 1014.3
20260901183036 78 0 0.0 0.0 0.00 0.66 0.48 88 1014.3
20260901182518 77 0 0.0 4.0 0.00 0.66 0.48 88 1014.3
20260901182019 77 0 0.0 4.0 0.00 0.66 0.48 90 1014.3
20260901181536 77 163 0.0 4.0 0.00 0.66 0.48 89 1014.2
20260901181017 77 0 0.0 2.0 0.00 0.66 0.48 89 1014.4
20260901180521 76 0 0.0 3.0 0.00 0.66 0.48 91 1014.2
20260901180039 76 0 0.0 3.0 0.00 0.66 0.48 91 1014.4
20260901175518 76 0 0.0 4.0 0.00 0.66 0.48 92 1014.3
20260901175016 76 0 0.0 4.0 0.00 0.66 0.48 96 1014.3
20260901174537 75 0 0.0 3.0 0.00 0.66 0.48 95 1014.3
20260901174018 75 0 0.0 2.0 0.00 0.66 0.48 97 1014.3
20260901173522 75 0 0.0 4.0 0.00 0.66 0.48 98 1014.3
20260901173037 74 0 0.0 4.0 0.00 0.66 0.48 98 1014.3
20260901172524 74 306 0.0 4.0 0.00 0.66 0.48 99 1014.4
20260901172021 74 303 0.0 4.0 0.01 0.66 0.48 99 1014.3
20260901171541 73 117 0.0 3.0 0.01 0.66 0.48 99 1014.3
20260901171018 73 0 0.0 3.0 0.01 0.66 0.48 98 1014.4
20260901170518 73 0 0.0 4.0 0.01 0.66 0.48 99 1014.3
20260901170034 73 0 0.0 6.0 0.02 0.66 0.48 98 1014.2
20260901165516 73 0 1.0 6.0 0.02 0.66 0.48 99 1014.1
20260901165019 73 0 0.0 5.0 0.02 0.66 0.48 99 1014.3
20260901164533 73 185 0.0 4.0 0.02 0.66 0.48 99 1014.5
20260901164023 72 0 0.0 2.0 0.02 0.66 0.48 99 1014.7
20260901163520 72 0 0.0 2.0 0.02 0.66 0.48 99 1014.9
20260901163035 72 0 0.0 1.0 0.02 0.66 0.48 99 1015.1
20260901162517 71 0 0.0 1.0 0.01 0.65 0.47 99 1015.2
20260901162018 71 0 0.0 1.0 0.01 0.65 0.47 99 1015.1
20260901161538 71 0 0.0 1.0 0.01 0.65 0.47 99 1015.2
20260901161017 71 0 0.0 0.0 0.01 0.65 0.47 99 1015.2
20260901160519 71 0 0.0 0.0 0.02 0.65 0.47 99 1015.3
20260901160038 71 0 0.0 0.0 0.02 0.64 0.46 99 1015.2
20260901155517 71 0 0.0 0.0 0.03 0.64 0.46 99 1015.2
20260901155016 71 0 0.0 1.0 0.04 0.64 0.46 99 1015.4
20260901154537 71 0 0.0 1.0 0.04 0.64 0.46 99 1015.5
20260901154018 71 0 0.0 0.0 0.05 0.64 0.46 99 1015.2
20260901153518 71 0 0.0 0.0 0.06 0.64 0.46 99 1015.0
20260901153034 71 0 0.0 0.0 0.07 0.64 0.46 99 1015.2
20260901152519 71 0 0.0 0.0 0.08 0.64 0.46 99 1015.5
20260901152021 70 0 0.0 1.0 0.08 0.64 0.46 99 1015.5
20260901151537 70 0 0.0 1.0 0.08 0.64 0.46 99 1015.5
20260901151021 70 0 0.0 1.0 0.08 0.64 0.46 98 1015.7
20260901150517 70 0 0.0 1.0 0.07 0.63 0.45 98 1015.5
20260901150035 70 0 0.0 0.0 0.06 0.62 0.44 98 1015.7
20260901145518 70 0 0.0 1.0 0.05 0.62 0.43 98 1015.8
20260901145018 70 0 0.0 1.0 0.05 0.61 0.42 98 1015.9
20260901144534 70 0 0.0 0.0 0.04 0.60 0.41 98 1015.9
20260901144017 70 0 0.0 0.0 0.04 0.60 0.41 98 1016.1
20260901143517 70 0 0.0 0.0 0.03 0.58 0.40 98 1016.0
20260901143037 70 0 0.0 0.0 0.03 0.58 0.39 99 1016.0
20260901142516 70 0 0.0 0.0 0.02 0.57 0.38 99 1015.8
20260901142016 70 0 0.0 0.0 0.02 0.57 0.38 99 1015.9
20260901141539 70 0 0.0 0.0 0.02 0.57 0.38 99 1015.8
20260901141018 70 0 0.0 0.0 0.04 0.57 0.38 99 1015.8
20260901140519 70 0 0.0 0.0 0.04 0.57 0.38 99 1015.9
20260901140037 70 0 0.0 0.0 0.04 0.57 0.38 98 1015.9
20260901135520 69 0 0.0 0.0 0.04 0.57 0.38 99 1015.8
20260901135022 69 0 0.0 0.0 0.03 0.56 0.37 98 1015.7
20260901134539 70 0 0.0 0.0 0.03 0.56 0.37 98 1015.6
20260901134022 70 0 0.0 0.0 0.03 0.56 0.37 99 1016.0
20260901133519 69 0 0.0 0.0 0.02 0.55 0.36 99 1015.9
20260901133035 69 0 0.0 0.0 0.02 0.55 0.36 98 1015.9
20260901132519 69 0 0.0 0.0 0.02 0.55 0.36 98 1015.9
20260901132019 69 0 0.0 1.0 0.02 0.55 0.36 98 1015.9
20260901131539 69 0 0.0 1.0 0.02 0.55 0.36 98 1016.0
20260901131019 69 0 0.0 1.0 0.00 0.52 0.34 98 1016.3
20260901130521 69 0 0.0 0.0 0.00 0.52 0.34 98 1015.9
20260901130039 69 0 0.0 0.0 0.00 0.52 0.34 98 1015.9
20260901125519 69 0 0.0 0.0 0.00 0.52 0.34 98 1015.9
20260901125016 69 0 0.0 0.0 0.00 0.52 0.34 98 1015.9
20260901124539 69 0 0.0 0.0 0.00 0.52 0.34 98 1015.9
20260901124018 69 0 0.0 0.0 0.00 0.52 0.34 98 1015.9
20260901123516 69 0 0.0 0.0 0.00 0.52 0.34 98 1015.9
20260901123040 69 0 0.0 0.0 0.00 0.52 0.34 98 1015.9
20260901122517 69 0 0.0 0.0 0.00 0.52 0.34 98 1016.0
20260901122020 69 0 0.0 0.0 0.00 0.52 0.34 99 1015.7
20260901121538 69 0 0.0 0.0 0.00 0.52 0.34 99 1015.8
20260901121022 69 0 0.0 0.0 0.00 0.52 0.34 99 1015.8
20260901120519 69 0 0.0 0.0 0.00 0.52 0.34 99 1015.8
20260901120037 69 0 0.0 0.0 0.00 0.52 0.34 98 1015.7
20260901115517 69 0 0.0 0.0 0.01 0.52 0.34 98 1015.7
20260901115020 68 0 0.0 0.0 0.01 0.52 0.34 98 1015.6
20260901114550 68 0 0.0 0.0 0.01 0.52 0.34 98 1015.6
20260901114019 68 0 0.0 0.0 0.01 0.52 0.34 98 1015.4
20260901113519 68 0 0.0 0.0 0.01 0.52 0.34 98 1015.6
20260901113037 68 0 0.0 0.0 0.01 0.52 0.34 98 1015.7
20260901112518 68 0 0.0 0.0 0.01 0.52 0.34 98 1015.9
20260901112017 68 0 0.0 0.0 0.01 0.52 0.34 98 1015.8
20260901111534 68 0 0.0 0.0 0.01 0.52 0.34 98 1015.8
20260901111021 68 0 0.0 0.0 0.01 0.52 0.34 98 1016.0
20260901110518 68 0 0.0 0.0 0.01 0.52 0.34 98 1016.0
20260901110040 68 0 0.0 0.0 0.01 0.52 0.34 98 1015.9
20260901105517 68 0 0.0 0.0 0.00 0.52 0.33 98 1015.9
20260901105016 68 0 0.0 0.0 0.00 0.52 0.33 98 1015.5
20260901104535 67 0 0.0 0.0 0.00 0.52 0.33 98 1015.7
20260901104020 67 0 0.0 0.0 0.00 0.52 0.33 98 1015.9
20260901103515 67 0 0.0 0.0 0.00 0.52 0.33 98 1015.9
20260901103037 67 0 0.0 0.0 0.00 0.52 0.33 98 1015.9
20260901102519 67 0 0.0 0.0 0.00 0.52 0.33 98 1016.0
20260901102019 68 0 0.0 0.0 0.00 0.52 0.33 98 1015.9
20260901101534 68 0 0.0 0.0 0.00 0.52 0.33 98 1015.9
20260901101018 68 0 0.0 0.0 0.00 0.52 0.33 98 1015.8
20260901100519 68 0 0.0 0.0 0.00 0.52 0.33 98 1015.8
20260901100040 68 0 0.0 0.0 0.00 0.52 0.33 98 1015.8
20260901095515 68 0 0.0 0.0 0.00 0.52 0.33 98 1015.8
20260901095019 68 0 0.0 0.0 0.00 0.52 0.33 98 1015.7
20260901094536 68 0 0.0 0.0 0.00 0.52 0.33 98 1015.7
20260901094020 68 0 0.0 0.0 0.00 0.52 0.33 98 1015.6
20260901093518 68 0 0.0 0.0 0.00 0.52 0.33 98 1015.6
20260901093036 68 0 0.0 0.0 0.00 0.52 0.33 98 1015.8
20260901092518 68 0 0.0 0.0 0.00 0.52 0.33 98 1015.8
20260901092022 68 0 0.0 0.0 0.00 0.52 0.33 98 1015.9
20260901091543 68 0 0.0 0.0 0.00 0.52 0.33 98 1015.8
20260901091019 68 0 0.0 0.0 0.00 0.52 0.33 98 1015.8
20260901090515 68 0 0.0 0.0 0.00 0.52 0.33 98 1015.8
20260901090033 68 0 0.0 0.0 0.00 0.52 0.33 98 1015.7
20260901085516 68 0 0.0 0.0 0.00 0.52 0.33 98 1015.7
20260901085020 68 0 0.0 0.0 0.00 0.52 0.33 98 1015.9
20260901084534 68 0 0.0 0.0 0.00 0.52 0.33 98 1015.8
20260901084017 68 0 0.0 0.0 0.00 0.52 0.33 98 1016.0
20260901083521 68 0 0.0 0.0 0.00 0.52 0.33 98 1016.0
20260901083037 68 0 0.0 0.0 0.00 0.52 0.33 98 1016.0
20260901082516 68 0 0.0 0.0 0.00 0.52 0.33 98 1016.1
20260901082018 68 0 0.0 0.0 0.00 0.52 0.33 98 1016.2
20260901081539 68 0 0.0 0.0 0.00 0.52 0.33 98 1016.1
20260901081015 68 0 0.0 0.0 0.00 0.52 0.33 98 1016.2
20260901080519 68 0 0.0 0.0 0.00 0.52 0.33 98 1016.2
20260901080053 68 0 0.0 0.0 0.00 0.52 0.33 98 1016.1
20260901075518 68 0 0.0 0.0 0.00 0.52 0.33 98 1016.1
20260901075018 68 0 0.0 0.0 0.00 0.52 0.33 98 1016.2
20260901074535 68 0 0.0 0.0 0.00 0.52 0.33 98 1016.2
20260901074018 68 0 0.0 0.0 0.00 0.52 0.33 98 1016.3
20260901073519 68 0 0.0 0.0 0.00 0.52 0.33 98 1016.3
20260901073038 68 0 0.0 0.0 0.00 0.52 0.33 98 1016.3
20260901072517 68 0 0.0 0.0 0.00 0.52 0.33 98 1016.3
20260901072016 68 0 0.0 0.0 0.00 0.52 0.33 98 1016.4
20260901071536 68 0 0.0 0.0 0.00 0.52 0.33 98 1016.3
20260901071017 68 0 0.0 0.0 0.00 0.52 0.33 98 1016.5
20260901070517 68 0 0.0 0.0 0.00 0.52 0.33 98 1016.5
20260901070038 68 0 0.0 0.0 0.01 0.52 0.33 98 1016.5
20260901065516 68 0 0.0 0.0 0.01 0.52 0.33 98 1016.5
20260901065019 68 0 0.0 0.0 0.01 0.52 0.33 98 1016.5
20260901064539 68 0 0.0 0.0 0.01 0.52 0.33 98 1016.6
20260901064016 68 0 0.0 0.0 0.01 0.52 0.33 98 1016.6
20260901063518 68 0 0.0 0.0 0.01 0.52 0.33 98 1016.6
20260901063039 68 0 0.0 0.0 0.01 0.52 0.33 98 1016.6
20260901062519 68 0 0.0 0.0 0.01 0.52 0.33 98 1016.6
20260901062015 68 0 0.0 0.0 0.01 0.52 0.33 98 1016.7
20260901061535 68 0 0.0 0.0 0.01 0.52 0.33 98 1016.7
20260901061017 68 0 0.0 0.0 0.01 0.52 0.33 98 1016.7
20260901060520 68 0 0.0 0.0 0.01 0.52 0.33 98 1016.7
20260901060038 68 0 0.0 0.0 0.00 0.51 0.32 98 1016.8
20260901055518 68 0 0.0 0.0 0.01 0.51 0.32 98 1016.7
20260901055016 68 0 0.0 0.0 0.02 0.51 0.32 98 1016.7
20260901054537 68 0 0.0 0.0 0.04 0.51 0.32 98 1016.9
20260901054018 68 0 0.0 0.0 0.04 0.51 0.32 97 1016.9
20260901053516 68 0 0.0 0.0 0.05 0.51 0.32 97 1016.8
20260901053034 68 0 0.0 0.0 0.06 0.51 0.32 97 1016.9
20260901052517 68 0 0.0 0.0 0.08 0.51 0.32 97 1016.9
20260901052021 68 0 0.0 3.0 0.15 0.51 0.32 97 1017.1
20260901051537 68 0 0.0 3.0 0.23 0.51 0.32 97 1017.1
20260901051018 68 0 0.0 3.0 0.26 0.51 0.32 97 1017.2
20260901050519 68 0 0.0 1.0 0.29 0.51 0.32 97 1017.3
20260901050036 68 0 0.0 1.0 0.32 0.51 0.32 97 1017.3
20260901045517 68 0 0.0 1.0 0.32 0.50 0.31 97 1017.1
20260901045015 68 0 0.0 1.0 0.32 0.48 0.29 97 1017.2
20260901044533 68 0 0.0 1.0 0.33 0.47 0.28 97 1017.2
20260901044018 68 0 0.0 0.0 0.35 0.47 0.28 97 1017.2
20260901043518 68 0 0.0 1.0 0.36 0.46 0.27 97 1017.4
20260901043035 68 0 0.0 1.0 0.36 0.45 0.26 97 1017.3
20260901042515 68 0 0.0 1.0 0.34 0.42 0.23 97 1017.3